Time,TemperatureF,DewpointF,PressureIn,WindDirection,WindDirectionDegrees,WindSpeedMPH,WindSpeedGustMPH,Humidity,HourlyPrecipIn,Conditions,Clouds,dailyrainin,SoftwareType,DateUTC
2013-04-12 00:00:00,56.7,12.4,25.19,West,265,0.0,0.0,17,0.00,,---,0.00,VWS V14.00,2013-04-12 07:00:00,
2013-04-12 00:05:00,56.8,12.5,25.19,West,265,0.0,0.0,17,0.00,,---,0.00,VWS V14.00,2013-04-12 07:05:00,
2013-04-12 00:10:00,56.5,12.2,25.19,West,265,0.0,0.0,17,0.00,,---,0.00,VWS V14.00,2013-04-12 07:10:00,
2013-04-12 00:15:00,56.1,11.9,25.19,SE,130,0.0,0.0,17,0.00,,---,0.00,VWS V14.00,2013-04-12 07:15:00,
2013-04-12 00:20:00,55.9,11.8,25.19,SSE,154,0.0,0.0,17,0.00,,---,0.00,VWS V14.00,2013-04-12 07:20:00,
2013-04-12 00:25:00,55.8,11.6,25.19,SSE,154,0.0,0.0,17,0.00,,---,0.00,VWS V14.00,2013-04-12 07:25:00,
2013-04-12 00:30:00,55.2,12.5,25.19,SSE,165,0.0,0.0,18,0.00,,---,0.00,VWS V14.00,2013-04-12 07:30:00,
2013-04-12 00:36:00,54.5,11.9,25.19,SSW,192,0.0,0.0,18,0.00,,---,0.00,VWS V14.00,2013-04-12 07:36:00,
2013-04-12 00:41:00,53.6,11.1,25.19,SW,226,4.0,4.0,18,0.00,,---,0.00,VWS V14.00,2013-04-12 07:41:00,
2013-04-12 00:46:00,53.1,10.7,25.19,SW,228,4.0,4.9,18,0.00,,---,0.00,VWS V14.00,2013-04-12 07:46:00,
2013-04-12 00:51:00,52.7,10.4,25.19,SW,232,4.9,5.4,18,0.00,,---,0.00,VWS V14.00,2013-04-12 07:51:00,
2013-04-12 00:56:00,52.5,10.2,25.16,SW,233,4.9,4.9,18,0.00,,---,0.00,VWS V14.00,2013-04-12 07:56:00,
2013-04-12 01:01:00,52.3,10.1,25.16,SW,233,4.5,4.5,18,0.00,,---,0.00,VWS V14.00,2013-04-12 08:01:00,
2013-04-12 01:07:00,51.8,9.7,25.16,WSW,238,4.9,4.9,18,0.00,,---,0.00,VWS V14.00,2013-04-12 08:07:00,
2013-04-12 01:12:00,50.5,9.8,25.16,WSW,245,4.0,4.0,19,0.00,,---,0.00,VWS V14.00,2013-04-12 08:12:00,
2013-04-12 01:17:00,49.8,9.2,25.16,WSW,244,5.4,5.4,19,0.00,,---,0.00,VWS V14.00,2013-04-12 08:17:00,
2013-04-12 01:22:00,49.5,8.9,25.16,WSW,245,0.0,0.0,19,0.00,,---,0.00,VWS V14.00,2013-04-12 08:22:00,
2013-04-12 01:28:00,49.3,8.8,25.16,WSW,244,0.0,0.0,19,0.00,,---,0.00,VWS V14.00,2013-04-12 08:28:00,
2013-04-12 01:33:00,48.7,8.3,25.16,WSW,244,0.0,0.0,19,0.00,,---,0.00,VWS V14.00,2013-04-12 08:33:00,
2013-04-12 01:38:00,49.1,8.6,25.16,WSW,243,0.0,0.0,19,0.00,,---,0.00,VWS V14.00,2013-04-12 08:38:00,
2013-04-12 01:43:00,48.7,8.3,25.16,WSW,243,0.0,0.0,19,0.00,,---,0.00,VWS V14.00,2013-04-12 08:43:00,
2013-04-12 01:48:00,48.0,7.7,25.16,WSW,243,0.0,0.0,19,0.00,,---,0.00,VWS V14.00,2013-04-12 08:48:00,
2013-04-12 01:53:00,47.7,7.4,25.16,WSW,243,0.0,0.0,19,0.00,,---,0.00,VWS V14.00,2013-04-12 08:53:00,
2013-04-12 01:58:00,47.8,7.6,25.13,WSW,243,0.0,0.0,19,0.00,,---,0.00,VWS V14.00,2013-04-12 08:58:00,
2013-04-12 02:03:00,47.7,7.4,25.13,WSW,243,0.0,0.0,19,0.00,,---,0.00,VWS V14.00,2013-04-12 09:03:00,
2013-04-12 02:08:00,47.7,7.4,25.13,WSW,243,0.0,0.0,19,0.00,,---,0.00,VWS V14.00,2013-04-12 09:08:00,
2013-04-12 02:13:00,47.8,7.6,25.16,SW,224,0.0,0.0,19,0.00,,---,0.00,VWS V14.00,2013-04-12 09:13:00,
2013-04-12 02:18:00,48.0,7.7,25.16,SW,223,4.5,4.5,19,0.00,,---,0.00,VWS V14.00,2013-04-12 09:18:00,
2013-04-12 02:23:00,48.6,8.2,25.16,SW,226,4.9,4.9,19,0.00,,---,0.00,VWS V14.00,2013-04-12 09:23:00,
2013-04-12 02:28:00,48.7,8.3,25.16,SW,225,3.1,3.6,19,0.00,,---,0.00,VWS V14.00,2013-04-12 09:28:00,
2013-04-12 02:33:00,48.9,8.5,25.16,SW,226,3.6,4.0,19,0.00,,---,0.00,VWS V14.00,2013-04-12 09:33:00,
2013-04-12 02:38:00,48.9,8.5,25.16,SW,226,4.5,4.5,19,0.00,,---,0.00,VWS V14.00,2013-04-12 09:38:00,
2013-04-12 02:44:00,48.7,8.3,25.16,SW,226,4.5,4.5,19,0.00,,---,0.00,VWS V14.00,2013-04-12 09:44:00,
2013-04-12 02:49:00,48.9,8.5,25.16,SW,226,2.7,3.1,19,0.00,,---,0.00,VWS V14.00,2013-04-12 09:49:00,
2013-04-12 02:54:00,48.9,8.5,25.16,SW,226,3.6,3.6,19,0.00,,---,0.00,VWS V14.00,2013-04-12 09:54:00,
2013-04-12 02:59:00,48.7,8.3,25.16,SW,225,3.1,3.6,19,0.00,,---,0.00,VWS V14.00,2013-04-12 09:59:00,
2013-04-12 03:04:00,48.7,8.3,25.16,SW,225,2.7,2.7,19,0.00,,---,0.00,VWS V14.00,2013-04-12 10:04:00,
2013-04-12 03:09:00,48.7,8.3,25.16,SW,225,3.6,3.6,19,0.00,,---,0.00,VWS V14.00,2013-04-12 10:09:00,
2013-04-12 03:14:00,48.7,8.3,25.16,SW,225,4.0,4.0,19,0.00,,---,0.00,VWS V14.00,2013-04-12 10:14:00,
2013-04-12 03:20:00,48.4,8.0,25.16,SW,225,3.1,3.1,19,0.00,,---,0.00,VWS V14.00,2013-04-12 10:20:00,
2013-04-12 03:25:00,48.2,7.9,25.16,SW,225,3.6,4.0,19,0.00,,---,0.00,VWS V14.00,2013-04-12 10:25:00,
2013-04-12 03:30:00,48.4,8.0,25.16,SW,226,4.9,4.9,19,0.00,,---,0.00,VWS V14.00,2013-04-12 10:30:00,
2013-04-12 03:35:00,48.4,8.0,25.16,SW,231,4.0,4.0,19,0.00,,---,0.00,VWS V14.00,2013-04-12 10:35:00,
2013-04-12 03:40:00,48.2,7.9,25.16,SW,235,4.0,4.9,19,0.00,,---,0.00,VWS V14.00,2013-04-12 10:40:00,
2013-04-12 03:45:00,47.8,7.6,25.16,SW,235,4.0,4.5,19,0.00,,---,0.00,VWS V14.00,2013-04-12 10:45:00,
2013-04-12 03:50:00,47.3,7.1,25.16,WSW,238,4.9,5.4,19,0.00,,---,0.00,VWS V14.00,2013-04-12 10:50:00,
2013-04-12 03:55:00,47.3,7.1,25.16,WSW,239,3.6,3.6,19,0.00,,---,0.00,VWS V14.00,2013-04-12 10:55:00,
2013-04-12 04:00:00,47.5,7.3,25.16,WSW,241,5.4,5.4,19,0.00,,---,0.00,VWS V14.00,2013-04-12 11:00:00,
2013-04-12 04:05:00,47.8,7.6,25.16,WSW,243,0.0,0.0,19,0.00,,---,0.00,VWS V14.00,2013-04-12 11:05:00,
2013-04-12 04:10:00,47.8,7.6,25.16,WSW,244,0.0,0.0,19,0.00,,---,0.00,VWS V14.00,2013-04-12 11:10:00,
2013-04-12 04:15:00,47.3,7.1,25.16,WSW,245,4.9,4.9,19,0.00,,---,0.00,VWS V14.00,2013-04-12 11:15:00,
2013-04-12 04:20:00,47.3,7.1,25.16,WSW,246,4.0,4.0,19,0.00,,---,0.00,VWS V14.00,2013-04-12 11:20:00,
2013-04-12 04:25:00,47.1,7.0,25.16,WSW,246,2.7,2.7,19,0.00,,---,0.00,VWS V14.00,2013-04-12 11:25:00,
2013-04-12 04:30:00,46.8,6.7,25.16,WSW,246,0.0,0.0,19,0.00,,---,0.00,VWS V14.00,2013-04-12 11:30:00,
2013-04-12 04:36:00,46.6,6.5,25.16,WSW,246,0.0,0.0,19,0.00,,---,0.00,VWS V14.00,2013-04-12 11:36:00,
2013-04-12 04:41:00,46.4,6.4,25.16,WSW,246,0.0,0.0,19,0.00,,---,0.00,VWS V14.00,2013-04-12 11:41:00,
2013-04-12 04:46:00,46.4,6.4,25.16,WSW,246,4.0,4.9,19,0.00,,---,0.00,VWS V14.00,2013-04-12 11:46:00,
2013-04-12 04:51:00,46.8,6.7,25.16,WSW,241,4.0,4.0,19,0.00,,---,0.00,VWS V14.00,2013-04-12 11:51:00,
2013-04-12 04:56:00,46.9,6.8,25.16,WSW,241,3.6,3.6,19,0.00,,---,0.00,VWS V14.00,2013-04-12 11:56:00,
2013-04-12 05:01:00,46.6,6.5,25.16,WSW,241,4.5,4.5,19,0.00,,---,0.00,VWS V14.00,2013-04-12 12:01:00,
2013-04-12 05:06:00,46.2,7.4,25.16,WSW,241,4.9,4.9,20,0.00,,---,0.00,VWS V14.00,2013-04-12 12:06:00,
2013-04-12 05:12:00,46.2,7.4,25.16,WSW,241,0.0,3.1,20,0.00,,---,0.00,VWS V14.00,2013-04-12 12:12:00,
2013-04-12 05:17:00,46.0,7.2,25.16,WSW,241,0.0,0.0,20,0.00,,---,0.00,VWS V14.00,2013-04-12 12:17:00,
2013-04-12 05:22:00,45.3,6.6,25.16,WSW,241,0.0,0.0,20,0.00,,---,0.00,VWS V14.00,2013-04-12 12:22:00,
2013-04-12 05:27:00,45.3,6.6,25.16,WSW,241,0.0,0.0,20,0.00,,---,0.00,VWS V14.00,2013-04-12 12:27:00,
2013-04-12 05:33:00,45.3,6.6,25.16,WSW,241,0.0,0.0,20,0.00,,---,0.00,VWS V14.00,2013-04-12 12:33:00,
2013-04-12 05:38:00,45.5,6.8,25.16,WSW,241,0.0,0.0,20,0.00,,---,0.00,VWS V14.00,2013-04-12 12:38:00,
2013-04-12 05:43:00,46.0,7.2,25.16,WSW,241,0.0,0.0,20,0.00,,---,0.00,VWS V14.00,2013-04-12 12:43:00,
2013-04-12 05:48:00,46.6,6.5,25.16,WSW,241,0.0,0.0,19,0.00,,---,0.00,VWS V14.00,2013-04-12 12:48:00,
2013-04-12 05:53:00,46.0,7.2,25.16,WSW,241,4.0,4.0,20,0.00,,---,0.00,VWS V14.00,2013-04-12 12:53:00,
2013-04-12 05:58:00,45.3,6.6,25.16,WSW,241,3.6,4.0,20,0.00,,---,0.00,VWS V14.00,2013-04-12 12:58:00,
2013-04-12 06:03:00,44.8,6.2,25.16,WSW,241,3.1,3.1,20,0.00,,---,0.00,VWS V14.00,2013-04-12 13:03:00,
2013-04-12 06:08:00,44.6,6.0,25.16,WSW,241,3.1,3.6,20,0.00,,---,0.00,VWS V14.00,2013-04-12 13:08:00,
2013-04-12 06:13:00,45.1,6.5,25.16,WSW,241,3.1,3.1,20,0.00,,---,0.00,VWS V14.00,2013-04-12 13:13:00,
2013-04-12 06:18:00,46.2,7.4,25.16,WSW,241,0.0,0.0,20,0.00,,---,0.00,VWS V14.00,2013-04-12 13:18:00,
2013-04-12 06:24:00,47.1,7.0,25.16,WSW,241,0.0,0.0,19,0.00,,---,0.00,VWS V14.00,2013-04-12 13:24:00,
2013-04-12 06:29:00,48.6,8.2,25.16,WSW,241,0.0,0.0,19,0.00,,---,0.00,VWS V14.00,2013-04-12 13:29:00,
2013-04-12 06:34:00,49.8,9.2,25.16,WSW,241,0.0,0.0,19,0.00,,---,0.00,VWS V14.00,2013-04-12 13:34:00,
2013-04-12 06:39:00,50.7,10.0,25.16,WSW,241,0.0,0.0,19,0.00,,---,0.00,VWS V14.00,2013-04-12 13:39:00,
2013-04-12 06:44:00,51.3,10.4,25.16,WSW,241,0.0,0.0,19,0.00,,---,0.00,VWS V14.00,2013-04-12 13:44:00,
2013-04-12 06:49:00,51.6,10.7,25.16,WSW,241,3.6,3.6,19,0.00,,---,0.00,VWS V14.00,2013-04-12 13:49:00,
2013-04-12 06:54:00,51.4,10.6,25.16,WSW,241,3.1,4.0,19,0.00,,---,0.00,VWS V14.00,2013-04-12 13:54:00,
2013-04-12 06:59:00,52.0,9.8,25.19,WSW,241,2.7,4.0,18,0.00,,---,0.00,VWS V14.00,2013-04-12 13:59:00,
2013-04-12 07:04:00,53.8,11.3,25.19,WSW,241,0.0,0.0,18,0.00,,---,0.00,VWS V14.00,2013-04-12 14:04:00,
2013-04-12 07:10:00,56.1,11.9,25.19,WSW,241,0.0,0.0,17,0.00,,---,0.00,VWS V14.00,2013-04-12 14:10:00,
2013-04-12 07:15:00,57.9,13.4,25.19,WSW,241,0.0,0.0,17,0.00,,---,0.00,VWS V14.00,2013-04-12 14:15:00,
2013-04-12 07:20:00,59.4,14.6,25.19,WSW,241,0.0,0.0,17,0.00,,---,0.00,VWS V14.00,2013-04-12 14:20:00,
2013-04-12 07:25:00,60.6,18.2,25.19,WSW,241,0.0,0.0,19,0.00,,---,0.00,VWS V14.00,2013-04-12 14:25:00,
2013-04-12 07:30:00,62.1,19.3,25.19,WSW,241,0.0,0.0,19,0.00,,---,0.00,VWS V14.00,2013-04-12 14:30:00,
2013-04-12 07:35:00,63.1,19.0,25.19,WSW,241,0.0,0.0,18,0.00,,---,0.00,VWS V14.00,2013-04-12 14:35:00,
2013-04-12 07:40:00,63.9,19.6,25.19,NE,34,3.6,5.4,18,0.00,,---,0.00,VWS V14.00,2013-04-12 14:40:00,
2013-04-12 07:45:00,63.5,19.3,25.19,NE,38,2.7,3.6,18,0.00,,---,0.00,VWS V14.00,2013-04-12 14:45:00,
2013-04-12 07:51:00,62.8,18.7,25.19,NNE,28,0.0,0.0,18,0.00,,---,0.00,VWS V14.00,2013-04-12 14:51:00,
2013-04-12 07:56:00,61.9,19.2,25.19,NNE,20,4.0,4.0,19,0.00,,---,0.00,VWS V14.00,2013-04-12 14:56:00,
2013-04-12 08:01:00,61.5,18.9,25.19,North,357,2.7,5.4,19,0.00,,---,0.00,VWS V14.00,2013-04-12 15:01:00,
2013-04-12 08:07:00,60.6,18.2,25.19,North,0,0.0,0.0,19,0.00,,---,0.00,VWS V14.00,2013-04-12 15:07:00,
2013-04-12 08:12:00,60.1,15.1,25.19,NNW,342,0.0,0.0,17,0.00,,---,0.00,VWS V14.00,2013-04-12 15:12:00,
2013-04-12 08:17:00,60.1,15.1,25.19,NNW,342,0.0,0.0,17,0.00,,---,0.00,VWS V14.00,2013-04-12 15:17:00,
2013-04-12 08:22:00,60.4,18.0,25.19,NNE,27,0.0,0.0,19,0.00,,---,0.00,VWS V14.00,2013-04-12 15:22:00,
2013-04-12 08:27:00,60.6,18.2,25.19,NNW,341,0.0,0.0,19,0.00,,---,0.00,VWS V14.00,2013-04-12 15:27:00,
2013-04-12 08:32:00,61.0,14.5,25.19,NNE,25,0.0,0.0,16,0.00,,---,0.00,VWS V14.00,2013-04-12 15:32:00,
2013-04-12 08:37:00,61.2,18.6,25.19,NNE,25,0.0,0.0,19,0.00,,---,0.00,VWS V14.00,2013-04-12 15:37:00,
2013-04-12 08:42:00,61.2,18.6,25.19,ENE,57,0.0,0.0,19,0.00,,---,0.00,VWS V14.00,2013-04-12 15:42:00,
2013-04-12 08:47:00,61.7,19.0,25.19,NNE,12,0.0,0.0,19,0.00,,---,0.00,VWS V14.00,2013-04-12 15:47:00,
2013-04-12 08:52:00,62.6,18.5,25.19,NNE,12,0.0,0.0,18,0.00,,---,0.00,VWS V14.00,2013-04-12 15:52:00,
2013-04-12 08:57:00,63.3,19.1,25.19,NNE,13,0.0,0.0,18,0.00,,---,0.00,VWS V14.00,2013-04-12 15:57:00,
2013-04-12 09:02:00,64.2,19.9,25.19,NNE,13,0.0,0.0,18,0.00,,---,0.00,VWS V14.00,2013-04-12 16:02:00,
2013-04-12 09:08:00,64.8,20.3,25.19,NNE,13,0.0,0.0,18,0.00,,---,0.00,VWS V14.00,2013-04-12 16:08:00,
2013-04-12 09:13:00,64.9,20.4,25.19,East,87,4.5,4.5,18,0.00,,---,0.00,VWS V14.00,2013-04-12 16:13:00,
2013-04-12 09:18:00,65.1,20.6,25.19,ENE,65,4.0,5.8,18,0.00,,---,0.00,VWS V14.00,2013-04-12 16:18:00,
2013-04-12 09:23:00,65.5,20.9,25.19,NE,43,4.5,5.4,18,0.00,,---,0.00,VWS V14.00,2013-04-12 16:23:00,
2013-04-12 09:28:00,65.5,20.9,25.19,NNE,33,5.4,5.4,18,0.00,,---,0.00,VWS V14.00,2013-04-12 16:28:00,
2013-04-12 09:33:00,65.3,20.7,25.19,NE,44,0.0,3.6,18,0.00,,---,0.00,VWS V14.00,2013-04-12 16:33:00,
2013-04-12 09:38:00,65.1,20.6,25.19,NE,45,5.4,5.8,18,0.00,,---,0.00,VWS V14.00,2013-04-12 16:38:00,
2013-04-12 09:43:00,65.3,20.7,25.19,ENE,63,2.7,5.8,18,0.00,,---,0.00,VWS V14.00,2013-04-12 16:43:00,
2013-04-12 09:48:00,65.5,20.9,25.19,ESE,110,5.4,6.3,18,0.00,,---,0.00,VWS V14.00,2013-04-12 16:48:00,
2013-04-12 09:53:00,65.5,20.9,25.19,ENE,66,4.0,4.0,18,0.00,,---,0.00,VWS V14.00,2013-04-12 16:53:00,
2013-04-12 09:58:00,65.7,21.0,25.19,NE,44,4.0,5.4,18,0.00,,---,0.00,VWS V14.00,2013-04-12 16:58:00,
2013-04-12 10:04:00,65.8,21.2,25.19,ESE,111,4.0,5.4,18,0.00,,---,0.00,VWS V14.00,2013-04-12 17:04:00,
2013-04-12 10:09:00,65.8,21.2,25.19,NE,42,2.7,5.4,18,0.00,,---,0.00,VWS V14.00,2013-04-12 17:09:00,
2013-04-12 10:14:00,65.7,21.0,25.19,ESE,111,5.4,5.4,18,0.00,,---,0.00,VWS V14.00,2013-04-12 17:14:00,
2013-04-12 10:19:00,65.5,20.9,25.19,SE,125,4.9,4.9,18,0.00,,---,0.00,VWS V14.00,2013-04-12 17:19:00,
2013-04-12 10:24:00,65.8,21.2,25.19,ENE,66,5.8,5.8,18,0.00,,---,0.00,VWS V14.00,2013-04-12 17:24:00,
2013-04-12 10:29:00,66.0,21.3,25.19,NE,50,5.8,5.8,18,0.00,,---,0.00,VWS V14.00,2013-04-12 17:29:00,
2013-04-12 10:34:00,66.2,20.1,25.19,ENE,57,7.2,7.2,17,0.00,,---,0.00,VWS V14.00,2013-04-12 17:34:00,
2013-04-12 10:39:00,66.4,20.3,25.19,ENE,71,4.0,6.3,17,0.00,,---,0.00,VWS V14.00,2013-04-12 17:39:00,
2013-04-12 10:44:00,66.7,20.6,25.19,ESE,109,4.0,5.4,17,0.00,,---,0.00,VWS V14.00,2013-04-12 17:44:00,
2013-04-12 10:49:00,66.9,20.7,25.19,ESE,109,0.0,0.0,17,0.00,,---,0.00,VWS V14.00,2013-04-12 17:49:00,
2013-04-12 10:55:00,67.3,21.0,25.19,ESE,102,2.2,4.0,17,0.00,,---,0.00,VWS V14.00,2013-04-12 17:55:00,
2013-04-12 11:00:00,67.5,21.2,25.19,ESE,120,3.1,3.1,17,0.00,,---,0.00,VWS V14.00,2013-04-12 18:00:00,
2013-04-12 11:07:00,67.8,21.5,25.19,ESE,121,0.0,0.0,17,0.00,,---,0.00,VWS V14.00,2013-04-12 18:07:00,
2013-04-12 11:12:00,68.2,21.7,25.19,ESE,117,0.0,0.0,17,0.00,,---,0.00,VWS V14.00,2013-04-12 18:12:00,
2013-04-12 11:19:00,68.4,21.9,25.19,ESE,123,0.0,4.0,17,0.00,,---,0.00,VWS V14.00,2013-04-12 18:19:00,
2013-04-12 11:24:00,68.5,22.0,25.19,South,175,0.0,0.0,17,0.00,,---,0.00,VWS V14.00,2013-04-12 18:24:00,
2013-04-12 11:30:00,68.9,22.3,25.19,SE,126,4.9,8.3,17,0.00,,---,0.00,VWS V14.00,2013-04-12 18:30:00,
2013-04-12 12:26:00,71.8,23.2,25.16,NNW,345,0.0,0.0,16,0.00,,---,0.00,VWS V14.00,2013-04-12 19:26:00,
2013-04-12 12:27:00,72.0,23.4,25.16,NNW,341,0.0,5.8,16,0.00,,---,0.00,VWS V14.00,2013-04-12 19:27:00,
2013-04-12 12:28:00,72.3,23.6,25.16,NNW,332,4.9,4.9,16,0.00,,---,0.00,VWS V14.00,2013-04-12 19:28:00,
2013-04-12 12:33:00,72.7,23.9,25.16,NW,307,4.9,8.1,16,0.00,,---,0.00,VWS V14.00,2013-04-12 19:33:00,
2013-04-12 12:39:00,72.9,24.1,25.16,SSW,209,0.0,4.9,16,0.00,,---,0.00,VWS V14.00,2013-04-12 19:39:00,
2013-04-12 12:44:00,73.0,24.2,25.16,WSW,252,3.6,3.6,16,0.00,,---,0.00,VWS V14.00,2013-04-12 19:44:00,
2013-04-12 12:49:00,73.8,24.8,25.16,ESE,102,0.0,3.6,16,0.00,,---,0.00,VWS V14.00,2013-04-12 19:49:00,
2013-04-12 12:54:00,73.2,24.4,25.16,ENE,77,6.3,6.3,16,0.00,,---,0.00,VWS V14.00,2013-04-12 19:54:00,
2013-04-12 12:59:00,73.0,24.2,25.16,SE,134,6.3,10.1,16,0.00,,---,0.00,VWS V14.00,2013-04-12 19:59:00,
2013-04-12 13:04:00,73.2,24.4,25.16,NE,54,8.1,8.3,16,0.00,,---,0.00,VWS V14.00,2013-04-12 20:04:00,
2013-04-12 13:09:00,74.1,25.1,25.16,NE,55,6.3,6.3,16,0.00,,---,0.00,VWS V14.00,2013-04-12 20:09:00,
2013-04-12 13:14:00,74.7,25.5,25.16,East,98,4.0,6.7,16,0.00,,---,0.00,VWS V14.00,2013-04-12 20:14:00,
2013-04-12 13:19:00,73.9,25.0,25.16,East,86,7.6,7.6,16,0.00,,---,0.00,VWS V14.00,2013-04-12 20:19:00,
2013-04-12 13:24:00,73.6,24.7,25.16,ENE,70,5.4,6.3,16,0.00,,---,0.00,VWS V14.00,2013-04-12 20:24:00,
2013-04-12 13:29:00,73.2,24.4,25.16,NE,35,3.1,3.1,16,0.00,,---,0.00,VWS V14.00,2013-04-12 20:29:00,
2013-04-12 13:34:00,73.6,24.7,25.16,WSW,242,2.7,3.6,16,0.00,,---,0.00,VWS V14.00,2013-04-12 20:34:00,
2013-04-12 13:39:00,73.8,24.8,25.16,SW,217,5.8,8.7,16,0.00,,---,0.00,VWS V14.00,2013-04-12 20:39:00,
2013-04-12 13:44:00,73.8,24.8,25.13,SE,128,0.0,4.9,16,0.00,,---,0.00,VWS V14.00,2013-04-12 20:44:00,
2013-04-12 13:49:00,74.1,25.1,25.13,ENE,61,6.3,6.7,16,0.00,,---,0.00,VWS V14.00,2013-04-12 20:49:00,
2013-04-12 13:55:00,73.2,24.4,25.13,NNW,340,7.2,7.6,16,0.00,,---,0.00,VWS V14.00,2013-04-12 20:55:00,
2013-04-12 14:00:00,72.9,24.1,25.13,East,86,5.8,5.8,16,0.00,,---,0.00,VWS V14.00,2013-04-12 21:00:00,
2013-04-12 14:05:00,73.0,24.2,25.13,ESE,105,0.0,0.0,16,0.00,,---,0.00,VWS V14.00,2013-04-12 21:05:00,
2013-04-12 14:10:00,73.0,24.2,25.13,NNE,31,5.4,5.4,16,0.00,,---,0.00,VWS V14.00,2013-04-12 21:10:00,
2013-04-12 14:15:00,72.9,24.1,25.13,NNE,27,0.0,5.4,16,0.00,,---,0.00,VWS V14.00,2013-04-12 21:15:00,
2013-04-12 14:20:00,72.5,23.8,25.13,NNW,343,5.8,5.8,16,0.00,,---,0.00,VWS V14.00,2013-04-12 21:20:00,
2013-04-12 14:25:00,72.0,23.4,25.13,NW,318,0.0,0.0,16,0.00,,---,0.00,VWS V14.00,2013-04-12 21:25:00,
2013-04-12 14:30:00,71.8,23.2,25.13,NNW,337,5.4,5.8,16,0.00,,---,0.00,VWS V14.00,2013-04-12 21:30:00,
2013-04-12 14:35:00,71.8,23.2,25.13,NNW,339,10.1,10.1,16,0.00,,---,0.00,VWS V14.00,2013-04-12 21:35:00,
2013-04-12 14:40:00,71.6,23.1,25.13,NW,319,3.6,3.6,16,0.00,,---,0.00,VWS V14.00,2013-04-12 21:40:00,
2013-04-12 14:45:00,71.4,24.4,25.13,NE,43,4.0,4.0,17,0.00,,---,0.00,VWS V14.00,2013-04-12 21:45:00,
2013-04-12 14:50:00,71.4,24.4,25.13,NE,36,4.0,4.0,17,0.00,,---,0.00,VWS V14.00,2013-04-12 21:50:00,
2013-04-12 14:55:00,71.4,24.4,25.13,NE,34,0.0,3.1,17,0.00,,---,0.00,VWS V14.00,2013-04-12 21:55:00,
2013-04-12 15:00:00,71.8,23.2,25.13,WNW,302,5.8,6.3,16,0.00,,---,0.00,VWS V14.00,2013-04-12 22:00:00,
2013-04-12 15:05:00,71.8,23.2,25.13,West,265,0.0,4.0,16,0.00,,---,0.00,VWS V14.00,2013-04-12 22:05:00,
2013-04-12 15:11:00,71.6,23.1,25.13,WNW,298,7.6,7.6,16,0.00,,---,0.00,VWS V14.00,2013-04-12 22:11:00,
2013-04-12 15:16:00,71.4,24.4,25.13,West,265,0.0,0.0,17,0.00,,---,0.00,VWS V14.00,2013-04-12 22:16:00,
2013-04-12 15:21:00,71.8,23.2,25.13,West,265,0.0,0.0,16,0.00,,---,0.00,VWS V14.00,2013-04-12 22:21:00,
2013-04-12 15:26:00,72.5,23.8,25.13,NW,307,4.0,4.9,16,0.00,,---,0.00,VWS V14.00,2013-04-12 22:26:00,
2013-04-12 15:32:00,73.2,24.4,25.13,NNW,338,5.8,5.8,16,0.00,,---,0.00,VWS V14.00,2013-04-12 22:32:00,
2013-04-12 15:37:00,73.0,24.2,25.13,WNW,292,2.7,4.9,16,0.00,,---,0.00,VWS V14.00,2013-04-12 22:37:00,
2013-04-12 15:42:00,72.9,24.1,25.10,SW,234,0.0,0.0,16,0.00,,---,0.00,VWS V14.00,2013-04-12 22:42:00,
2013-04-12 15:47:00,72.9,24.1,25.10,NNW,340,5.8,5.8,16,0.00,,---,0.00,VWS V14.00,2013-04-12 22:47:00,
2013-04-12 15:52:00,72.7,23.9,25.10,NNW,340,6.7,8.3,16,0.00,,---,0.00,VWS V14.00,2013-04-12 22:52:00,
2013-04-12 15:57:00,72.1,23.5,25.10,NNW,345,2.7,5.8,16,0.00,,---,0.00,VWS V14.00,2013-04-12 22:57:00,
2013-04-12 16:02:00,71.8,23.2,25.10,NNW,331,6.7,9.2,16,0.00,,---,0.00,VWS V14.00,2013-04-12 23:02:00,
2013-04-12 16:07:00,71.4,24.4,25.10,NNW,334,5.4,6.3,17,0.00,,---,0.00,VWS V14.00,2013-04-12 23:07:00,
2013-04-12 16:12:00,71.2,24.2,25.10,NNW,337,4.0,4.5,17,0.00,,---,0.00,VWS V14.00,2013-04-12 23:12:00,
2013-04-12 16:17:00,71.1,24.1,25.10,NNW,328,2.7,3.6,17,0.00,,---,0.00,VWS V14.00,2013-04-12 23:17:00,
2013-04-12 16:22:00,71.1,24.1,25.10,NNW,327,0.0,0.0,17,0.00,,---,0.00,VWS V14.00,2013-04-12 23:22:00,
2013-04-12 16:27:00,71.1,24.1,25.10,NNW,327,0.0,0.0,17,0.00,,---,0.00,VWS V14.00,2013-04-12 23:27:00,
2013-04-12 16:32:00,71.1,24.1,25.10,West,263,4.0,5.4,17,0.00,,---,0.00,VWS V14.00,2013-04-12 23:32:00,
2013-04-12 16:37:00,70.9,23.9,25.10,NNE,33,5.8,6.3,17,0.00,,---,0.00,VWS V14.00,2013-04-12 23:37:00,
2013-04-12 16:43:00,70.7,23.8,25.10,NE,55,4.9,6.3,17,0.00,,---,0.00,VWS V14.00,2013-04-12 23:43:00,
2013-04-12 16:48:00,70.5,23.6,25.10,NE,42,5.4,6.3,17,0.00,,---,0.00,VWS V14.00,2013-04-12 23:48:00,
2013-04-12 16:53:00,70.2,23.4,25.10,ENE,58,4.0,4.0,17,0.00,,---,0.00,VWS V14.00,2013-04-12 23:53:00,
2013-04-12 16:58:00,70.0,23.2,25.10,NE,42,2.7,3.6,17,0.00,,---,0.00,VWS V14.00,2013-04-12 23:58:00,
2013-04-12 17:03:00,70.0,23.2,25.10,NNE,32,2.7,4.9,17,0.00,,---,0.00,VWS V14.00,2013-04-13 00:03:00,
2013-04-12 17:08:00,70.0,23.2,25.10,North,7,0.0,3.1,17,0.00,,---,0.00,VWS V14.00,2013-04-13 00:08:00,
2013-04-12 17:13:00,69.8,23.1,25.10,NE,34,8.7,8.7,17,0.00,,---,0.00,VWS V14.00,2013-04-13 00:13:00,
2013-04-12 17:18:00,69.4,22.8,25.10,NE,51,8.7,10.5,17,0.00,,---,0.00,VWS V14.00,2013-04-13 00:18:00,
2013-04-12 17:23:00,69.3,22.6,25.10,NE,43,7.6,7.6,17,0.00,,---,0.00,VWS V14.00,2013-04-13 00:23:00,
2013-04-12 17:28:00,69.1,22.5,25.13,NE,56,0.0,2.7,17,0.00,,---,0.00,VWS V14.00,2013-04-13 00:28:00,
2013-04-12 17:33:00,68.9,22.3,25.13,NNW,345,0.0,0.0,17,0.00,,---,0.00,VWS V14.00,2013-04-13 00:33:00,
2013-04-12 17:38:00,68.5,22.0,25.13,NNW,339,4.0,8.3,17,0.00,,---,0.00,VWS V14.00,2013-04-13 00:38:00,
2013-04-12 17:43:00,68.4,21.9,25.13,WNW,284,6.3,10.5,17,0.00,,---,0.00,VWS V14.00,2013-04-13 00:43:00,
2013-04-12 17:48:00,68.0,21.6,25.13,WNW,290,8.7,10.5,17,0.00,,---,0.00,VWS V14.00,2013-04-13 00:48:00,
2013-04-12 17:53:00,68.0,21.6,25.13,WNW,295,6.3,10.1,17,0.00,,---,0.00,VWS V14.00,2013-04-13 00:53:00,
2013-04-12 17:58:00,68.0,21.6,25.13,NNW,337,2.7,4.5,17,0.00,,---,0.00,VWS V14.00,2013-04-13 00:58:00,
2013-04-12 18:03:00,68.0,21.6,25.13,NNW,336,0.0,0.0,17,0.00,,---,0.00,VWS V14.00,2013-04-13 01:03:00,
2013-04-12 18:08:00,67.8,21.5,25.13,WNW,300,0.0,0.0,17,0.00,,---,0.00,VWS V14.00,2013-04-13 01:08:00,
2013-04-12 18:13:00,67.6,21.3,25.13,West,269,4.0,5.8,17,0.00,,---,0.00,VWS V14.00,2013-04-13 01:13:00,
2013-04-12 18:19:00,67.5,21.2,25.13,NW,314,0.0,2.2,17,0.00,,---,0.00,VWS V14.00,2013-04-13 01:19:00,
2013-04-12 18:24:00,67.3,21.0,25.13,WNW,297,4.9,5.4,17,0.00,,---,0.00,VWS V14.00,2013-04-13 01:24:00,
2013-04-12 18:29:00,66.9,20.7,25.13,NW,304,3.6,3.6,17,0.00,,---,0.00,VWS V14.00,2013-04-13 01:29:00,
2013-04-12 18:34:00,66.6,20.4,25.13,NW,307,2.7,3.1,17,0.00,,---,0.00,VWS V14.00,2013-04-13 01:34:00,
2013-04-12 18:39:00,66.0,21.3,25.13,NW,307,3.1,3.6,18,0.00,,---,0.00,VWS V14.00,2013-04-13 01:39:00,
2013-04-12 18:44:00,65.3,20.7,25.13,NW,307,0.0,0.0,18,0.00,,---,0.00,VWS V14.00,2013-04-13 01:44:00,
2013-04-12 18:49:00,64.9,20.4,25.13,West,278,8.7,8.7,18,0.00,,---,0.00,VWS V14.00,2013-04-13 01:49:00,
2013-04-12 18:54:00,64.9,20.4,25.13,WNW,299,5.8,5.8,18,0.00,,---,0.00,VWS V14.00,2013-04-13 01:54:00,
2013-04-12 18:59:00,65.1,20.6,25.13,NNW,336,7.6,7.6,18,0.00,,---,0.00,VWS V14.00,2013-04-13 01:59:00,
2013-04-12 19:04:00,65.1,20.6,25.13,NNW,330,5.4,5.4,18,0.00,,---,0.00,VWS V14.00,2013-04-13 02:04:00,
2013-04-12 19:10:00,64.9,20.4,25.13,NNW,330,3.6,4.0,18,0.00,,---,0.00,VWS V14.00,2013-04-13 02:10:00,
2013-04-12 19:15:00,64.8,20.3,25.13,NW,314,5.8,6.3,18,0.00,,---,0.00,VWS V14.00,2013-04-13 02:15:00,
2013-04-12 19:20:00,64.4,20.0,25.13,NW,310,5.4,5.8,18,0.00,,---,0.00,VWS V14.00,2013-04-13 02:20:00,
2013-04-12 19:25:00,64.2,19.9,25.13,West,279,3.6,5.8,18,0.00,,---,0.00,VWS V14.00,2013-04-13 02:25:00,
2013-04-12 19:30:00,63.9,19.6,25.13,NW,307,5.8,6.7,18,0.00,,---,0.00,VWS V14.00,2013-04-13 02:30:00,
2013-04-12 19:35:00,63.7,19.4,25.13,WNW,288,6.3,6.3,18,0.00,,---,0.00,VWS V14.00,2013-04-13 02:35:00,
2013-04-12 19:41:00,63.5,19.3,25.13,WNW,302,7.6,10.1,18,0.00,,---,0.00,VWS V14.00,2013-04-13 02:41:00,
2013-04-12 19:46:00,63.3,19.1,25.16,NW,315,6.3,8.7,18,0.00,,---,0.00,VWS V14.00,2013-04-13 02:46:00,
2013-04-12 19:51:00,63.1,19.0,25.16,NNW,330,6.3,6.3,18,0.00,,---,0.00,VWS V14.00,2013-04-13 02:51:00,
2013-04-12 19:56:00,63.1,19.0,25.16,NW,320,6.3,6.3,18,0.00,,---,0.00,VWS V14.00,2013-04-13 02:56:00,
2013-04-12 20:01:00,63.0,18.8,25.16,NW,310,5.4,5.8,18,0.00,,---,0.00,VWS V14.00,2013-04-13 03:01:00,
2013-04-12 20:06:00,62.4,19.6,25.16,WNW,300,3.6,4.0,19,0.00,,---,0.00,VWS V14.00,2013-04-13 03:06:00,
2013-04-12 20:12:00,61.5,14.9,25.16,West,280,4.0,4.0,16,0.00,,---,0.00,VWS V14.00,2013-04-13 03:12:00,
2013-04-12 20:17:00,60.8,14.4,25.16,West,271,5.8,7.6,16,0.00,,---,0.00,VWS V14.00,2013-04-13 03:17:00,
2013-04-12 20:23:00,60.8,14.4,25.16,West,262,7.6,8.3,16,0.00,,---,0.00,VWS V14.00,2013-04-13 03:23:00,
2013-04-12 20:28:00,60.8,14.4,25.16,WSW,256,8.7,8.7,16,0.00,,---,0.00,VWS V14.00,2013-04-13 03:28:00,
2013-04-12 20:33:00,61.0,18.5,25.16,West,274,6.3,8.3,19,0.00,,---,0.00,VWS V14.00,2013-04-13 03:33:00,
2013-04-12 20:38:00,61.0,18.5,25.16,West,261,6.3,6.3,19,0.00,,---,0.00,VWS V14.00,2013-04-13 03:38:00,
2013-04-12 20:43:00,61.0,18.5,25.16,WNW,282,4.9,5.4,19,0.00,,---,0.00,VWS V14.00,2013-04-13 03:43:00,
2013-04-12 20:48:00,60.4,15.4,25.16,West,272,6.7,8.3,17,0.00,,---,0.00,VWS V14.00,2013-04-13 03:48:00,
2013-04-12 20:54:00,60.3,15.3,25.16,West,262,8.3,8.3,17,0.00,,---,0.00,VWS V14.00,2013-04-13 03:54:00,
2013-04-12 20:59:00,60.1,15.1,25.16,WSW,256,5.8,6.3,17,0.00,,---,0.00,VWS V14.00,2013-04-13 03:59:00,
2013-04-12 21:00:00,60.1,15.1,25.16,WSW,256,5.4,8.1,17,0.00,,---,0.00,VWS V14.00,2013-04-13 04:00:00,
2013-04-12 21:04:00,59.9,15.0,25.16,West,267,8.3,8.3,17,0.00,,---,0.00,VWS V14.00,2013-04-13 04:04:00,
2013-04-12 21:05:00,59.9,15.0,25.16,West,261,8.1,8.1,17,0.00,,---,0.00,VWS V14.00,2013-04-13 04:05:00,
2013-04-12 21:10:00,59.7,14.9,25.16,West,261,5.8,8.1,17,0.00,,---,0.00,VWS V14.00,2013-04-13 04:10:00,
2013-04-12 21:15:00,59.7,14.9,25.16,West,271,7.2,8.3,17,0.00,,---,0.00,VWS V14.00,2013-04-13 04:15:00,
2013-04-12 21:20:00,59.7,14.9,25.16,West,266,8.7,8.7,17,0.00,,---,0.00,VWS V14.00,2013-04-13 04:20:00,
2013-04-12 21:26:00,59.7,14.9,25.19,West,265,5.4,8.7,17,0.00,,---,0.00,VWS V14.00,2013-04-13 04:26:00,
2013-04-12 21:31:00,59.9,15.0,25.19,West,264,6.3,6.3,17,0.00,,---,0.00,VWS V14.00,2013-04-13 04:31:00,
2013-04-12 21:37:00,60.4,15.4,25.19,West,261,7.6,8.3,17,0.00,,---,0.00,VWS V14.00,2013-04-13 04:37:00,
2013-04-12 21:42:00,60.4,15.4,25.19,West,264,8.3,8.3,17,0.00,,---,0.00,VWS V14.00,2013-04-13 04:42:00,
2013-04-12 21:47:00,60.6,15.6,25.19,WNW,284,8.3,8.3,17,0.00,,---,0.00,VWS V14.00,2013-04-13 04:47:00,
2013-04-12 21:52:00,60.8,14.4,25.19,WSW,252,7.6,7.6,16,0.00,,---,0.00,VWS V14.00,2013-04-13 04:52:00,
2013-04-12 21:57:00,60.4,15.4,25.19,West,279,6.3,6.3,17,0.00,,---,0.00,VWS V14.00,2013-04-13 04:57:00,
2013-04-12 22:02:00,60.1,15.1,25.19,West,270,8.7,8.7,17,0.00,,---,0.00,VWS V14.00,2013-04-13 05:02:00,
2013-04-12 22:07:00,60.1,15.1,25.19,West,263,8.7,8.7,17,0.00,,---,0.00,VWS V14.00,2013-04-13 05:07:00,
2013-04-12 22:12:00,59.9,15.0,25.19,West,273,5.8,8.7,17,0.00,,---,0.00,VWS V14.00,2013-04-13 05:12:00,
2013-04-12 22:18:00,59.9,15.0,25.19,West,271,5.8,7.6,17,0.00,,---,0.00,VWS V14.00,2013-04-13 05:18:00,
2013-04-12 22:23:00,60.1,15.1,25.19,West,280,5.8,5.8,17,0.00,,---,0.00,VWS V14.00,2013-04-13 05:23:00,
2013-04-12 22:28:00,59.7,14.9,25.19,WSW,254,6.3,7.6,17,0.00,,---,0.00,VWS V14.00,2013-04-13 05:28:00,
2013-04-12 22:33:00,59.7,14.9,25.19,West,281,4.5,5.8,17,0.00,,---,0.00,VWS V14.00,2013-04-13 05:33:00,
2013-04-12 22:38:00,59.5,14.7,25.19,WSW,258,5.8,7.6,17,0.00,,---,0.00,VWS V14.00,2013-04-13 05:38:00,
2013-04-12 22:43:00,59.5,14.7,25.19,WNW,285,5.4,8.7,17,0.00,,---,0.00,VWS V14.00,2013-04-13 05:43:00,
2013-04-12 22:48:00,59.2,14.4,25.19,West,273,5.8,7.2,17,0.00,,---,0.00,VWS V14.00,2013-04-13 05:48:00,
2013-04-12 22:53:00,59.2,14.4,25.19,West,276,5.4,5.8,17,0.00,,---,0.00,VWS V14.00,2013-04-13 05:53:00,
2013-04-12 22:58:00,59.4,14.6,25.19,WNW,294,5.4,8.7,17,0.00,,---,0.00,VWS V14.00,2013-04-13 05:58:00,
2013-04-12 23:03:00,59.5,14.7,25.19,West,269,5.8,5.8,17,0.00,,---,0.00,VWS V14.00,2013-04-13 06:03:00,
2013-04-12 23:08:00,59.5,14.7,25.19,West,280,4.9,5.4,17,0.00,,---,0.00,VWS V14.00,2013-04-13 06:08:00,
2013-04-12 23:13:00,59.5,14.7,25.19,West,278,8.3,8.3,17,0.00,,---,0.00,VWS V14.00,2013-04-13 06:13:00,
2013-04-12 23:18:00,59.7,14.9,25.19,West,275,5.8,6.3,17,0.00,,---,0.00,VWS V14.00,2013-04-13 06:18:00,
2013-04-12 23:24:00,59.7,14.9,25.19,WNW,288,5.8,5.8,17,0.00,,---,0.00,VWS V14.00,2013-04-13 06:24:00,
2013-04-12 23:29:00,59.5,14.7,25.19,West,259,4.0,6.3,17,0.00,,---,0.00,VWS V14.00,2013-04-13 06:29:00,
2013-04-12 23:34:00,59.4,14.6,25.19,West,263,5.4,6.3,17,0.00,,---,0.00,VWS V14.00,2013-04-13 06:34:00,
2013-04-12 23:39:00,59.4,14.6,25.19,West,274,5.8,5.8,17,0.00,,---,0.00,VWS V14.00,2013-04-13 06:39:00,
2013-04-12 23:45:00,59.4,14.6,25.19,West,274,4.0,6.3,17,0.00,,---,0.00,VWS V14.00,2013-04-13 06:45:00,
2013-04-12 23:50:00,59.5,14.7,25.19,WSW,258,6.3,6.3,17,0.00,,---,0.00,VWS V14.00,2013-04-13 06:50:00,
2013-04-12 23:55:00,59.5,14.7,25.19,West,263,5.4,5.8,17,0.00,,---,0.00,VWS V14.00,2013-04-13 06:55:00,